TimeCDT,TemperatureF,Dew PointF,Humidity,Sea Level PressureIn,VisibilityMPH,Wind Direction,Wind SpeedMPH,Gust SpeedMPH,PrecipitationIn,Events,Conditions,WindDirDegrees,DateUTC
12:53 AM,79.0,72.0,79,30.01,7.0,Calm,Calm,-,N/A,,Clear,0,2013-09-10 05:53:00
1:53 AM,78.1,72.0,81,30.01,7.0,Calm,Calm,-,N/A,,Clear,0,2013-09-10 06:53:00
2:53 AM,75.0,71.1,87,30.02,6.0,Calm,Calm,-,N/A,,Clear,0,2013-09-10 07:53:00
3:53 AM,75.0,72.0,90,30.03,5.0,Calm,Calm,-,N/A,,Clear,0,2013-09-10 08:53:00
4:53 AM,73.0,71.1,93,30.04,4.0,Calm,Calm,-,N/A,,Mostly Cloudy,0,2013-09-10 09:53:00
5:46 AM,71.6,69.8,94,30.06,2.5,Calm,Calm,-,N/A,,Clear,0,2013-09-10 10:46:00
5:53 AM,72.0,71.1,97,30.06,2.5,Calm,Calm,-,N/A,,Partly Cloudy,0,2013-09-10 10:53:00
6:06 AM,71.6,69.8,94,30.07,3.0,Calm,Calm,-,N/A,,Scattered Clouds,0,2013-09-10 11:06:00
6:53 AM,73.0,71.1,93,30.07,4.0,Calm,Calm,-,N/A,,Partly Cloudy,0,2013-09-10 11:53:00
7:24 AM,73.4,71.6,94,30.09,2.5,Calm,Calm,-,N/A,,Clear,0,2013-09-10 12:24:00
7:53 AM,73.0,71.1,93,30.09,3.0,Calm,Calm,-,N/A,,Clear,0,2013-09-10 12:53:00
8:00 AM,73.4,71.6,94,30.10,2.5,Calm,Calm,-,N/A,,Clear,0,2013-09-10 13:00:00
8:24 AM,75.2,73.4,94,30.11,3.0,SE,3.5,-,N/A,,Clear,140,2013-09-10 13:24:00
8:53 AM,77.0,73.9,90,30.12,4.0,ESE,8.1,-,N/A,,Partly Cloudy,120,2013-09-10 13:53:00
9:53 AM,81.0,72.0,74,30.12,6.0,SSE,6.9,-,N/A,,Haze,160,2013-09-10 14:53:00
10:53 AM,84.0,71.1,65,30.12,7.0,SSE,10.4,-,N/A,,Clear,150,2013-09-10 15:53:00
11:53 AM,84.9,72.0,65,30.11,8.0,Variable,3.5,-,N/A,,Clear,0,2013-09-10 16:53:00
12:53 PM,89.1,73.0,59,30.10,8.0,SE,4.6,-,N/A,,Clear,140,2013-09-10 17:53:00
1:53 PM,93.9,69.1,44,30.08,10.0,Variable,3.5,-,N/A,,Clear,0,2013-09-10 18:53:00
2:53 PM,93.0,72.0,50,30.06,8.0,SSE,6.9,-,N/A,,Clear,150,2013-09-10 19:53:00
3:53 PM,93.0,72.0,50,30.04,9.0,SSE,5.8,-,N/A,,Clear,150,2013-09-10 20:53:00
4:53 PM,90.0,73.0,57,30.05,7.0,SE,9.2,-,N/A,,Clear,140,2013-09-10 21:53:00
5:53 PM,88.0,73.0,61,30.05,8.0,SE,8.1,-,N/A,,Clear,130,2013-09-10 22:53:00
6:53 PM,84.0,72.0,67,30.06,8.0,SE,6.9,-,N/A,,Clear,140,2013-09-10 23:53:00
7:53 PM,82.9,72.0,69,30.08,8.0,SSE,8.1,-,N/A,,Clear,160,2013-09-11 00:53:00
8:53 PM,82.0,75.0,79,30.10,8.0,South,8.1,-,N/A,,Clear,170,2013-09-11 01:53:00
9:53 PM,80.1,73.0,79,30.11,8.0,SSE,4.6,-,N/A,,Clear,160,2013-09-11 02:53:00
10:53 PM,75.9,72.0,87,30.11,7.0,Calm,Calm,-,N/A,,Clear,0,2013-09-11 03:53:00
11:53 PM,73.9,71.1,91,30.11,6.0,Calm,Calm,-,N/A,,Clear,0,2013-09-11 04:53:00